When you browse on this site, cookies collect data to enhance your experience and personalize the content and advertising you see.
Visit our Privacy Policy to learn more. By continuing to use the site, you agree to this use of cookies and data.
  • In Hungary
  • List of Countries
  • For 7 days
  • Water Temperature
  • Weather Map
  • News
  • Weather Widgets
  • user-avatar
    Login

    Hourly Weather Kanuny

    Today, 10 December, Tuesday

    Time Temperature Precipitation Wind Pressure Humidity
    00:00 +2°C° 0 mm 3 mps 737 mmHg 86%
    01:00 +3°C° 0 mm 2 mps 737 mmHg 86%
    02:00 +3°C° 0 mm 2 mps 738 mmHg 88%
    03:00 +3°C° 0 mm 2 mps 738 mmHg 87%
    04:00 +3°C° 0 mm 2 mps 738 mmHg 86%
    05:00 +3°C° 0 mm 2 mps 738 mmHg 86%
    06:00 +3°C° 0 mm 2 mps 738 mmHg 85%
    07:00 +3°C° 0 mm 2 mps 738 mmHg 84%
    08:00 +4°C° 0 mm 2 mps 739 mmHg 84%
    09:00 +4°C° 0 mm 2 mps 739 mmHg 82%
    10:00 +5°C° 0 mm 2 mps 739 mmHg 80%
    11:00 +5°C° 0 mm 2 mps 740 mmHg 78%
    12:00 +6°C° 0 mm 2 mps 740 mmHg 78%
    13:00 +6°C° 0 mm 2 mps 740 mmHg 78%
    14:00 +6°C° 0 mm 2 mps 740 mmHg 78%
    15:00 +6°C° 0 mm 2 mps 741 mmHg 82%
    16:00 +5°C° 0 mm 2 mps 741 mmHg 85%
    17:00 +5°C° 0 mm 2 mps 741 mmHg 89%
    18:00 +4°C° 0 mm 2 mps 742 mmHg 89%
    19:00 +4°C° 0 mm 2 mps 742 mmHg 90%
    20:00 +3°C° 0 mm 3 mps 743 mmHg 91%
    21:00 +3°C° 0 mm 3 mps 743 mmHg 90%
    22:00 +4°C° 0 mm 2 mps 744 mmHg 89%
    23:00 +4°C° 0 mm 2 mps 744 mmHg 88%

    Tomorrow, 11 December, Wednesday

    Time Temperature Precipitation Wind Pressure Humidity
    00:00 +3°C° 0 mm 2 mps 744 mmHg 88%
    01:00 +2°C° 0 mm 2 mps 745 mmHg 89%
    02:00 +1°C° 0 mm 2 mps 745 mmHg 89%
    03:00 -1°C° 0 mm 2 mps 745 mmHg 90%
    04:00 -1°C° 0 mm 2 mps 745 mmHg 92%
    05:00 -2°C° 0 mm 2 mps 744 mmHg 93%
    06:00 -2°C° 0 mm 2 mps 745 mmHg 93%
    07:00 -2°C° 0 mm 2 mps 745 mmHg 93%
    08:00 0°C° 0 mm 1 mps 746 mmHg 94%
    09:00 +1°C° 0 mm 1 mps 745 mmHg 90%
    10:00 +2°C° 0 mm 1 mps 745 mmHg 86%
    11:00 +1°C° 0 mm 0 mps 745 mmHg 82%
    12:00 +1°C° 0 mm 0 mps 745 mmHg 83%
    13:00 +2°C° 0 mm 0 mps 745 mmHg 85%
    14:00 +3°C° 0 mm 1 mps 745 mmHg 86%
    15:00 +2°C° 0.2 mm 1 mps 745 mmHg 89%
    16:00 +2°C° 0.2 mm 1 mps 744 mmHg 93%
    17:00 -1°C° 0.2 mm 2 mps 744 mmHg 97%
    18:00 +1°C° 0.4 mm 2 mps 744 mmHg 97%
    19:00 +1°C° 0.4 mm 2 mps 744 mmHg 97%
    20:00 0°C° 0.4 mm 3 mps 744 mmHg 97%
    21:00 +1°C° 0.4 mm 3 mps 743 mmHg 97%
    22:00 +1°C° 0.4 mm 3 mps 743 mmHg 97%
    23:00 0°C° 0.4 mm 4 mps 743 mmHg 97%

    Day after tomorrow, 12 December, Thursday

    Time Temperature Precipitation Wind Pressure Humidity
    00:00 +1°C° 0.3 mm 4 mps 742 mmHg 96%
    01:00 +1°C° 0.3 mm 4 mps 742 mmHg 96%
    02:00 +2°C° 0.3 mm 3 mps 742 mmHg 95%
    03:00 +3°C° 0.1 mm 4 mps 741 mmHg 93%
    04:00 +3°C° 0.1 mm 4 mps 741 mmHg 92%
    05:00 +2°C° 0.1 mm 5 mps 740 mmHg 90%
    06:00 +1°C° 0 mm 5 mps 741 mmHg 90%
    07:00 +1°C° 0 mm 5 mps 741 mmHg 89%
    08:00 0°C° 0 mm 5 mps 741 mmHg 89%
    09:00 +1°C° 0 mm 5 mps 741 mmHg 85%
    10:00 +1°C° 0 mm 5 mps 741 mmHg 80%
    11:00 +2°C° 0 mm 5 mps 741 mmHg 76%
    12:00 +2°C° 0 mm 5 mps 740 mmHg 76%
    13:00 +3°C° 0 mm 5 mps 740 mmHg 75%
    14:00 +4°C° 0 mm 4 mps 740 mmHg 75%
    15:00 +3°C° 0 mm 4 mps 739 mmHg 78%
    16:00 +3°C° 0 mm 4 mps 739 mmHg 82%
    17:00 +1°C° 0 mm 4 mps 739 mmHg 85%
    18:00 +1°C° 0 mm 4 mps 739 mmHg 86%
    19:00 0°C° 0 mm 5 mps 739 mmHg 88%
    20:00 0°C° 0 mm 5 mps 739 mmHg 89%
    21:00 0°C° 0 mm 5 mps 738 mmHg 88%
    22:00 +1°C° 0 mm 5 mps 738 mmHg 87%
    23:00 +1°C° 0 mm 5 mps 738 mmHg 85%

    13 December, Friday

    Time Temperature Precipitation Wind Pressure Humidity
    00:00 +1°C° 0 mm 5 mps 737 mmHg 85%
    01:00 +1°C° 0 mm 5 mps 737 mmHg 84%
    02:00 +2°C° 0 mm 5 mps 737 mmHg 83%
    03:00 +1°C° 0 mm 6 mps 736 mmHg 83%
    04:00 +1°C° 0 mm 6 mps 736 mmHg 84%
    05:00 -1°C° 0 mm 6 mps 735 mmHg 84%
    06:00 -1°C° 0 mm 6 mps 735 mmHg 85%
    07:00 -1°C° 0 mm 7 mps 735 mmHg 86%
    08:00 -2°C° 0 mm 7 mps 735 mmHg 86%
    09:00 -2°C° 0 mm 7 mps 735 mmHg 86%
    10:00 -1°C° 0 mm 7 mps 734 mmHg 86%
    11:00 -1°C° 0 mm 7 mps 734 mmHg 86%
    12:00 -1°C° 0 mm 7 mps 734 mmHg 85%
    13:00 -1°C° 0 mm 7 mps 734 mmHg 83%
    14:00 0°C° 0 mm 7 mps 734 mmHg 82%
    15:00 +1°C° 0 mm 6 mps 733 mmHg 82%
    16:00 +1°C° 0 mm 6 mps 733 mmHg 82%
    17:00 +1°C° 0 mm 6 mps 733 mmHg 83%
    18:00 +1°C° 0 mm 6 mps 734 mmHg 82%
    19:00 +1°C° 0 mm 6 mps 734 mmHg 82%
    20:00 +1°C° 0 mm 6 mps 734 mmHg 82%
    21:00 +1°C° 0 mm 6 mps 734 mmHg 82%
    22:00 +1°C° 0 mm 6 mps 734 mmHg 83%
    23:00 +1°C° 0 mm 6 mps 734 mmHg 83%

    14 December, Saturday

    Time Temperature Precipitation Wind Pressure Humidity
    00:00 +1°C° 0 mm 6 mps 734 mmHg 83%
    01:00 +1°C° 0 mm 6 mps 734 mmHg 83%
    02:00 +1°C° 0 mm 6 mps 734 mmHg 84%
    03:00 +1°C° 0 mm 6 mps 734 mmHg 83%
    04:00 +1°C° 0 mm 6 mps 734 mmHg 83%
    05:00 +1°C° 0 mm 5 mps 734 mmHg 83%
    06:00 +1°C° 0 mm 5 mps 735 mmHg 84%
    07:00 +1°C° 0 mm 5 mps 735 mmHg 84%
    08:00 +1°C° 0 mm 5 mps 735 mmHg 85%
    09:00 +1°C° 0 mm 5 mps 735 mmHg 84%
    10:00 +1°C° 0 mm 5 mps 736 mmHg 84%
    11:00 +2°C° 0 mm 6 mps 736 mmHg 83%
    12:00 +2°C° 0 mm 6 mps 736 mmHg 83%
    13:00 +3°C° 0 mm 6 mps 735 mmHg 82%
    14:00 +3°C° 0 mm 5 mps 735 mmHg 82%
    15:00 +3°C° 0 mm 5 mps 735 mmHg 83%
    16:00 +3°C° 0 mm 5 mps 736 mmHg 84%
    17:00 +3°C° 0 mm 5 mps 736 mmHg 86%
    18:00 +3°C° 0 mm 5 mps 736 mmHg 87%
    19:00 +3°C° 0 mm 5 mps 736 mmHg 87%
    20:00 +3°C° 0 mm 5 mps 736 mmHg 88%
    21:00 +3°C° 0 mm 5 mps 736 mmHg 90%
    22:00 +4°C° 0 mm 4 mps 736 mmHg 91%
    23:00 +5°C° 0 mm 4 mps 736 mmHg 92%

    15 December, Sunday

    Time Temperature Precipitation Wind Pressure Humidity
    00:00 +5°C° 0 mm 4 mps 736 mmHg 92%
    01:00 +5°C° 0 mm 4 mps 736 mmHg 92%
    02:00 +5°C° 0 mm 4 mps 737 mmHg 92%
    03:00 +4°C° 0 mm 4 mps 737 mmHg 91%
    04:00 +4°C° 0 mm 4 mps 737 mmHg 90%
    05:00 +3°C° 0 mm 3 mps 738 mmHg 88%
    06:00 +3°C° 0 mm 4 mps 738 mmHg 88%
    07:00 +3°C° 0 mm 4 mps 739 mmHg 87%
    08:00 +1°C° 0 mm 4 mps 739 mmHg 87%
    09:00 +3°C° 0 mm 4 mps 740 mmHg 82%
    10:00 +4°C° 0 mm 4 mps 740 mmHg 78%
    11:00 +5°C° 0 mm 4 mps 741 mmHg 73%
    12:00 +5°C° 0 mm 4 mps 741 mmHg 71%
    13:00 +6°C° 0 mm 4 mps 741 mmHg 68%
    14:00 +7°C° 0 mm 4 mps 741 mmHg 66%
    15:00 +6°C° 0 mm 4 mps 742 mmHg 70%
    16:00 +5°C° 0 mm 3 mps 742 mmHg 74%
    17:00 +4°C° 0 mm 3 mps 743 mmHg 78%
    18:00 +4°C° 0 mm 3 mps 743 mmHg 77%
    19:00 +4°C° 0 mm 3 mps 743 mmHg 76%
    20:00 +4°C° 0 mm 4 mps 742 mmHg 75%
    21:00 +5°C° 0 mm 4 mps 742 mmHg 72%
    22:00 +5°C° 0 mm 5 mps 742 mmHg 68%
    23:00 +5°C° 0 mm 6 mps 742 mmHg 65%
    Show more